Location: Sternwarte auf dem Internationalen Platz Vogelsang IP
(50.5721°N, 6.4398°E)
Time: 00:25:41
(UTC+01:00)

Vanguard 1 Rocket - All Passes

Search period start: 06 December 2025 00:00
Search period end: 16 December 2025 00:00
Orbit: 651 x 4216 km, 34.3° (Epoch: 04 December)

Date Brightness Start Highest point End Pass type
(mag) Time Alt. Az. Time Alt. Az. Time Alt. Az.
06 Dec - 09:51:03 10° SSW 09:55:37 21° SSE 10:02:13 10° ESE daylight
06 Dec - 12:13:07 10° WSW 12:19:58 29° S 12:31:22 10° SE daylight
06 Dec - 14:37:46 10° WSW 14:45:56 22° SSW 14:57:58 10° SSE daylight
07 Dec - 08:41:35 10° S 08:44:03 13° SSE 08:46:59 10° SE daylight
07 Dec - 11:02:01 10° SW 11:07:38 26° S 11:16:36 10° ESE daylight
07 Dec - 13:25:29 10° WSW 13:32:51 25° SSW 13:44:24 10° SSE daylight
07 Dec - 15:54:16 10° SW 15:59:14 12° SSW 16:05:09 10° SSW daylight
08 Dec - 09:51:20 10° SSW 09:55:43 21° SSE 10:02:01 10° ESE daylight
08 Dec - 12:13:49 10° WSW 12:20:09 26° S 12:30:14 10° SE daylight
08 Dec - 14:39:23 10° WSW 14:46:00 17° SSW 14:54:57 10° S daylight
09 Dec - 08:41:24 10° S 08:44:06 14° SSE 08:47:24 10° SE daylight
09 Dec - 11:02:35 10° SW 11:07:51 24° S 11:15:55 10° SE daylight
09 Dec - 13:26:36 10° WSW 13:33:00 20° SSW 13:42:22 10° SSE daylight
10 Dec - 09:51:44 10° SW 09:55:54 20° SSE 10:01:44 10° SE daylight
10 Dec - 12:14:42 10° SW 12:20:22 22° S 12:28:53 10° SE daylight
10 Dec - 14:42:24 10° SW 14:46:05 12° SSW 14:50:24 10° S daylight
11 Dec - 08:41:26 10° SSW 08:44:13 14° SSE 08:47:36 10° SE daylight
11 Dec - 11:03:18 10° SW 11:08:05 21° S 11:15:06 10° SE daylight
11 Dec - 13:28:15 10° SW 13:33:12 15° SSW 13:39:44 10° S daylight
12 Dec - 09:52:16 10° SW 09:56:07 19° S 10:01:21 10° SE daylight
12 Dec - 12:15:51 10° SW 12:20:37 17° SSW 12:27:12 10° SSE daylight
13 Dec - 08:41:41 10° SSW 08:44:24 15° SSE 08:47:40 10° SE daylight
13 Dec - 11:04:11 10° SW 11:08:21 18° S 11:14:05 10° SSE daylight
13 Dec - 13:32:07 10° SSW 13:33:25 10° SSW 13:34:48 10° SSW daylight
14 Dec - 09:52:57 10° SW 09:56:23 17° S 10:00:50 10° SE daylight
14 Dec - 12:17:41 10° SW 12:20:53 13° SSW 12:24:49 10° S daylight
15 Dec - 08:42:05 10° SSW 08:44:38 14° S 08:47:36 10° SE daylight
15 Dec - 11:05:26 10° SW 11:08:39 14° S 11:12:41 10° SSE daylight
